Lambertville, OH

11:35 PM EDT on March 27, 2017 (GMT -0400)
Lambertville

Weather History for KDUH - March, 2013

Change the Weather History Date:

Thursday, March 28, 2013

  Actual Average (KTOL) Record (KTOL)
Temperature  
Mean Temperature 41 °F -  
Max Temperature 52 °F 52 °F 81 °F (1910)
Min Temperature 30 °F 31 °F 11 °F (1934)
Degree Days  
Heating Degree Days 24    
Moisture  
Dew Point 24 °F    
Average Humidity 52    
Maximum Humidity 72    
Minimum Humidity 33    
Precipitation  
Precipitation 0.00 in - - ()
Sea Level Pressure  
Sea Level Pressure 30.24 in    
Wind  
Wind Speed 5 mph (WNW)    
Max Wind Speed 12 mph    
Max Gust Speed 18 mph    
Visibility 10 miles    
Events      
Averages and records for this station are not official NWS values.
T = Trace of Precipitation, MM = Missing Value Source: NWS Daily Summary

Daily Weather History Graph

Daily Weather History Graph

Search for Another Location

Airport or City:

Trip Planner

Search our weather history database for the weather conditions in past years. The results will help you decide how hot, cold, wet, or windy it might be!

Date:

Astronomy

Mar. 28, 2013 Rise Set
Actual Time 7:23 AM EDT 7:55 PM EDT
Civil Twilight 6:55 AM EDT 8:23 PM EDT
Nautical Twilight 6:23 AM EDT 8:56 PM EDT
Astronomical Twilight 5:49 AM EDT 9:30 PM EDT
Moon 9:48 PM EDT 7:49 AM EDT
Length of Visible Light 13h 27m
Length of Day
12h 32m
Full, 98% of the Moon is Illuminated
Mar 28
Full
Apr 3
Last Quarter
Apr 10
New
Apr 18
First Quarter
Apr 25
Full

Hourly Weather History & Observations

Time (EDT) Temp. Windchill Dew Point Humidity Pressure Visibility Wind Dir Wind Speed Gust Speed Precip Events Conditions
12:15 AM 33.8 °F 30.8 °F 22.6 °F 64% 30.23 in 10.0 mi WNW 3.5 mph - N/A   Clear
12:35 AM 33.4 °F 29.1 °F 22.1 °F 63% 30.22 in 10.0 mi WNW 4.6 mph - N/A   Clear
12:55 AM 33.3 °F 28.9 °F 22.1 °F 64% 30.22 in 10.0 mi WNW 4.6 mph - N/A   Clear
1:15 AM 32.7 °F 29.6 °F 21.9 °F 64% 30.23 in 10.0 mi WNW 3.5 mph - N/A   Clear
1:35 AM 32.2 °F 27.7 °F 22.1 °F 66% 30.23 in 10.0 mi West 4.6 mph - N/A   Scattered Clouds
1:55 AM 32.4 °F 29.1 °F 22.6 °F 67% 30.23 in 10.0 mi West 3.5 mph - N/A   Overcast
2:15 AM 32.5 °F 29.3 °F 22.6 °F 67% 30.23 in 10.0 mi West 3.5 mph - N/A   Mostly Cloudy
2:35 AM 32.2 °F 28.9 °F 22.5 °F 67% 30.23 in 10.0 mi West 3.5 mph - N/A   Mostly Cloudy
2:55 AM 32.0 °F 27.5 °F 22.6 °F 68% 30.23 in 10.0 mi West 4.6 mph - N/A   Overcast
3:15 AM 32.0 °F 27.5 °F 22.3 °F 67% 30.23 in 10.0 mi West 4.6 mph - N/A   Overcast
3:35 AM 31.8 °F 28.5 °F 22.1 °F 67% 30.23 in 10.0 mi West 3.5 mph - N/A   Mostly Cloudy
3:55 AM 31.1 °F 27.7 °F 21.7 °F 68% 30.23 in 10.0 mi West 3.5 mph - N/A   Scattered Clouds
4:15 AM 31.1 °F 27.7 °F 21.6 °F 68% 30.23 in 10.0 mi West 3.5 mph - N/A   Clear
4:35 AM 30.7 °F 24.9 °F 21.2 °F 68% 30.23 in 10.0 mi West 5.8 mph - N/A   Clear
4:55 AM 30.7 °F 26.0 °F 21.2 °F 68% 30.23 in 10.0 mi West 4.6 mph - N/A   Clear
5:15 AM 30.7 °F 26.0 °F 21.2 °F 68% 30.23 in 10.0 mi West 4.6 mph - N/A   Clear
5:35 AM 30.7 °F 26.0 °F 21.2 °F 68% 30.23 in 10.0 mi West 4.6 mph - N/A   Clear
5:55 AM 30.2 °F 25.4 °F 21.2 °F 69% 30.23 in 10.0 mi West 4.6 mph - N/A   Clear
6:15 AM 30.2 °F 24.3 °F 21.2 °F 69% 30.23 in 10.0 mi West 5.8 mph - N/A   Clear
6:35 AM 30.0 °F 23.2 °F 21.2 °F 70% 30.23 in 10.0 mi West 6.9 mph - N/A   Clear
6:55 AM 30.0 °F 24.1 °F 21.9 °F 72% 30.23 in 10.0 mi West 5.8 mph - N/A   Clear
7:15 AM 30.0 °F 23.2 °F 21.9 °F 72% 30.24 in 10.0 mi West 6.9 mph - N/A   Clear
7:35 AM 30.2 °F 25.4 °F 21.7 °F 71% 30.25 in 10.0 mi West 4.6 mph - N/A   Clear
7:55 AM 30.6 °F 23.8 °F 21.7 °F 70% 30.25 in 10.0 mi West 6.9 mph - N/A   Clear
8:15 AM 32.0 °F 26.4 °F 22.1 °F 67% 30.25 in 10.0 mi West 5.8 mph - N/A   Clear
8:35 AM 32.5 °F 27.1 °F 22.8 °F 67% 30.26 in 10.0 mi West 5.8 mph - N/A   Clear
8:55 AM 34.0 °F 28.8 °F 23.5 °F 66% 30.26 in 10.0 mi West 5.8 mph - N/A   Clear
9:15 AM 35.6 °F 28.6 °F 24.3 °F 63% 30.26 in 10.0 mi West 9.2 mph - N/A   Clear
9:35 AM 37.0 °F 32.4 °F 25.2 °F 62% 30.27 in 10.0 mi WNW 5.8 mph - N/A   Clear
9:55 AM 38.8 °F 33.8 °F 25.5 °F 59% 30.27 in 10.0 mi NW 6.9 mph - N/A   Scattered Clouds
10:15 AM 38.8 °F 33.2 °F 25.3 °F 58% 30.27 in 10.0 mi WNW 8.1 mph - N/A   Mostly Cloudy
10:35 AM 40.1 °F 34.7 °F 25.5 °F 56% 30.27 in 10.0 mi WNW 8.1 mph - N/A   Overcast
10:55 AM 41.0 °F 36.4 °F 25.5 °F 54% 30.27 in 10.0 mi WNW 6.9 mph - N/A   Overcast
11:15 AM 43.5 °F 38.9 °F 25.9 °F 50% 30.27 in 10.0 mi NNW 8.1 mph - N/A   Overcast
11:35 AM 45.1 °F 41.4 °F 25.7 °F 47% 30.27 in 10.0 mi WNW 6.9 mph - N/A   Overcast
11:55 AM 46.6 °F - 25.0 °F 43% 30.27 in 10.0 mi NW 9.2 mph - N/A   Overcast
12:15 PM 46.2 °F 40.8 °F 24.6 °F 43% 30.27 in 10.0 mi NW 11.5 mph 17.3 mph N/A   Overcast
12:35 PM 48.0 °F - 25.2 °F 41% 30.26 in 10.0 mi NW 6.9 mph - N/A   Overcast
12:55 PM 48.7 °F - 25.3 °F 40% 30.26 in 10.0 mi NW 10.4 mph 16.1 mph N/A   Overcast
1:15 PM 48.7 °F - 24.6 °F 39% 30.25 in 10.0 mi NNW 4.6 mph - N/A   Overcast
1:35 PM 50.5 °F - 25.5 °F 38% 30.25 in 10.0 mi WNW 9.2 mph - N/A   Overcast
1:55 PM 50.9 °F - 24.6 °F 36% 30.25 in 10.0 mi NW 8.1 mph 18.4 mph N/A   Overcast
2:15 PM 51.3 °F - 23.7 °F 34% 30.25 in 10.0 mi WNW 8.1 mph - N/A   Overcast
2:35 PM 51.1 °F - 24.1 °F 35% 30.24 in 10.0 mi WNW 6.9 mph 16.1 mph N/A   Overcast
2:55 PM 51.8 °F - 23.7 °F 33% 30.24 in 10.0 mi West 5.8 mph 10.4 mph N/A   Overcast
3:15 PM 51.3 °F - 23.0 °F 33% 30.24 in 10.0 mi NW 6.9 mph - N/A   Overcast
3:35 PM 52.0 °F - 23.9 °F 34% 30.23 in 10.0 mi NNW 8.1 mph - N/A   Overcast
3:55 PM 51.1 °F - 23.5 °F 34% 30.23 in 10.0 mi West 5.8 mph - N/A   Overcast
4:15 PM 51.1 °F - 23.5 °F 34% 30.23 in 10.0 mi NW 5.8 mph - N/A   Overcast
4:35 PM 50.9 °F - 23.2 °F 34% 30.23 in 10.0 mi NNW 6.9 mph - N/A   Overcast
4:55 PM 51.1 °F - 23.5 °F 34% 30.22 in 10.0 mi NW 5.8 mph - N/A   Overcast
5:15 PM 51.3 °F - 22.8 °F 33% 30.22 in 10.0 mi NW 6.9 mph - N/A   Overcast
5:35 PM 51.3 °F - 22.8 °F 33% 30.22 in 10.0 mi NW 6.9 mph - N/A   Overcast
5:55 PM 50.7 °F - 22.8 °F 34% 30.22 in 10.0 mi West 4.6 mph - N/A   Overcast
6:15 PM 50.5 °F - 23.0 °F 34% 30.22 in 10.0 mi WNW 3.5 mph - N/A   Overcast
6:35 PM 50.5 °F - 22.8 °F 34% 30.22 in 10.0 mi NW 4.6 mph - N/A   Overcast
6:55 PM 50.4 °F - 22.6 °F 34% 30.23 in 10.0 mi WNW 4.6 mph - N/A   Overcast
7:15 PM 50.0 °F - 23.0 °F 35% 30.23 in 10.0 mi West 5.8 mph - N/A   Overcast
7:35 PM 49.3 °F - 24.1 °F 37% 30.23 in 10.0 mi West 5.8 mph - N/A   Overcast
7:55 PM 48.7 °F - 24.3 °F 38% 30.23 in 10.0 mi West 3.5 mph - N/A   Overcast
8:15 PM 47.8 °F - 26.2 °F 43% 30.23 in 10.0 mi Calm Calm - N/A   Overcast
8:35 PM 47.3 °F - 26.2 °F 44% 30.24 in 10.0 mi Calm Calm - N/A   Overcast
8:55 PM 46.4 °F - 25.9 °F 45% 30.24 in 10.0 mi Calm Calm - N/A   Overcast
9:15 PM 45.5 °F - 26.2 °F 47% 30.24 in 10.0 mi Calm Calm - N/A   Overcast
9:35 PM 44.8 °F - 26.4 °F 49% 30.25 in 10.0 mi Calm Calm - N/A   Overcast
9:55 PM 44.6 °F - 26.8 °F 50% 30.25 in 10.0 mi Calm Calm - N/A   Overcast
10:15 PM 44.6 °F - 27.0 °F 50% 30.25 in 10.0 mi Calm Calm - N/A   Overcast
10:35 PM 44.8 °F - 27.0 °F 50% 30.26 in 10.0 mi Calm Calm - N/A   Overcast
10:55 PM 43.7 °F - 27.7 °F 53% 30.26 in 10.0 mi Calm Calm - N/A   Overcast
11:15 PM 43.7 °F 41.1 °F 25.9 °F 50% 30.26 in 10.0 mi WNW 4.6 mph - N/A   Overcast
11:35 PM 43.0 °F 40.3 °F 25.2 °F 49% 30.26 in 10.0 mi WNW 4.6 mph - N/A   Overcast
11:55 PM 41.4 °F 37.6 °F 25.3 °F 53% 30.27 in 10.0 mi NW 5.8 mph - N/A   Scattered Clouds